Location: Cardiff
(53.7833°N, 113.6000°W)
Time: 08:26:39
(UTC+00:00)

RS-15 - Pass Details

Date: 05 December 2023
Orbit: 1893 x 2151 km, 64.8° (Epoch: 21 February)

Event Time Altitude Azimuth Distance (km) Brightness Sun altitude
Rises 02:07:35 0° 159° (SSE) 5,653 10.3 -24.1°
Reaches altitude 10° 02:11:59 10° 147° (SSE) 4,638 9.7 -24.7°
Enters shadow 02:15:36 18° 132° (SE) 3,975 9.2 -25.3°
